Weather History for KBMI - June, 2013

Change the Weather History Date:

Monday, June 24, 2013

  Actual Average Record
Temperature  
Mean Temperature 77 °F -  
Max Temperature 88 °F 85 °F 95 °F (2005)
Min Temperature 66 °F 65 °F 54 °F (2006)
Cooling Degree Days 12    
Growing Degree Days 27 (Base 50)    
Moisture  
Dew Point 68 °F    
Average Humidity 82    
Maximum Humidity 96    
Minimum Humidity 57    
Precipitation  
Precipitation 1.16 in - - ()
Sea Level Pressure  
Sea Level Pressure 30.02 in    
Wind  
Wind Speed 9 mph (South)    
Max Wind Speed 33 mph    
Max Gust Speed 53 mph    
Visibility 8 miles    
Events Fog , Rain , Thunderstorm    
Averages and records for this station are not official NWS values.
T = Trace of Precipitation, MM = Missing Value Source: NWS Daily Summary

Daily Weather History Graph

Daily Weather History Graph

Search for Another Location

Airport or City:

Trip Planner

Search our weather history database for the weather conditions in past years. The results will help you decide how hot, cold, wet, or windy it might be!

Date:

Astronomy

Jun. 24, 2013 Rise Set
Actual Time 5:26 AM CDT 8:30 PM CDT
Civil Twilight 4:53 AM CDT 9:03 PM CDT
Nautical Twilight 4:10 AM CDT 9:45 PM CDT
Astronomical Twilight 3:20 AM CDT 10:35 PM CDT
Moon 9:31 PM CDT (6/24) 6:54 AM CDT (6/24)
Length of Visible Light 16h 10m
Length of Day
15h 03m
Full, 98% of the Moon is Illuminated
Jun 24
Full
Jun 29
Last Quarter
Jul 8
New
Jul 15
First Quarter
Jul 22
Full

Hourly Weather History & Observations

Time (CDT) Temp. Heat Index Dew Point Humidity Pressure Visibility Wind Dir Wind Speed Gust Speed Precip Events Conditions
12:56 AM 70.0 °F - 66.9 °F 90% 30.00 in 10.0 mi WSW 5.8 mph - N/A   Clear
1:56 AM 68.0 °F - 65.8 °F 93% 29.99 in 10.0 mi South 8.1 mph - N/A   Clear
2:56 AM 66.9 °F - 65.8 °F 96% 30.00 in 10.0 mi South 10.4 mph - N/A   Partly Cloudy
3:56 AM 66.9 °F - 65.8 °F 96% 30.01 in 10.0 mi SSW 9.2 mph - N/A   Mostly Cloudy
4:35 AM 69.8 °F - 64.4 °F 83% 30.06 in 10.0 mi Variable 4.6 mph - N/A Thunderstorm Thunderstorm
4:56 AM 68.9 °F - 66.9 °F 93% 30.03 in 10.0 mi East 4.6 mph - N/A   Overcast
5:07 AM 69.8 °F - 66.2 °F 88% 30.06 in 10.0 mi ESE 6.9 mph - N/A Thunderstorm Overcast
5:25 AM 68.0 °F - 66.2 °F 94% 30.07 in 10.0 mi ESE 8.1 mph - N/A Thunderstorm Overcast
5:44 AM 69.8 °F - 64.4 °F 83% 30.07 in 10.0 mi SE 8.1 mph - N/A Thunderstorm Overcast
5:56 AM 68.9 °F - 64.9 °F 87% 30.04 in 10.0 mi SSE 5.8 mph - N/A Thunderstorm Mostly Cloudy
6:56 AM 70.0 °F - 65.8 °F 87% 30.09 in 10.0 mi NE 5.8 mph - N/A Thunderstorm Mostly Cloudy
7:56 AM 68.9 °F - 65.8 °F 90% 30.08 in 10.0 mi Calm Calm - N/A Thunderstorm Mostly Cloudy
8:03 AM 69.8 °F - 66.2 °F 88% 30.11 in 10.0 mi East 9.2 mph - N/A   Mostly Cloudy
8:56 AM 72.0 °F - 66.9 °F 84% 30.08 in 10.0 mi South 6.9 mph - N/A   Scattered Clouds
9:56 AM 75.9 °F - 64.9 °F 69% 30.07 in 10.0 mi SSW 11.5 mph - N/A   Partly Cloudy
10:56 AM 77.9 °F - 66.9 °F 69% 30.07 in 10.0 mi Variable 5.8 mph - N/A   Clear
11:56 AM 79.0 °F - 68.9 °F 71% 30.04 in 10.0 mi SSW 9.2 mph - N/A   Clear
12:56 PM 83.8 °F 89.2 °F 72.0 °F 67% 30.00 in 10.0 mi SSW 11.5 mph - N/A   Clear
1:56 PM 84.9 °F 90.7 °F 72.0 °F 65% 29.99 in 10.0 mi SSW 12.7 mph 19.6 mph N/A   Clear
2:56 PM 86.9 °F 95.0 °F 73.9 °F 65% 29.98 in 10.0 mi SSW 17.3 mph - N/A   Partly Cloudy
3:56 PM 88.0 °F 94.7 °F 72.0 °F 59% 29.96 in 10.0 mi SSW 16.1 mph - N/A   Scattered Clouds
4:56 PM 88.0 °F 93.8 °F 70.9 °F 57% 29.98 in 10.0 mi SW 11.5 mph - N/A   Partly Cloudy
5:16 PM 86.0 °F 90.4 °F 69.8 °F 58% 30.02 in 10.0 mi WSW 9.2 mph - 0.00 in Thunderstorm Partly Cloudy
5:30 PM 82.4 °F 87.2 °F 71.6 °F 70% 30.04 in 2.5 mi West 21.9 mph 40.3 mph 0.01 in Rain , Thunderstorm Rain
5:32 PM 78.8 °F - 69.8 °F 74% 30.05 in 1.2 mi WNW 33.4 mph 52.9 mph 0.05 in Rain , Thunderstorm Heavy Thunderstorms and Rain
5:43 PM 73.4 °F - 66.2 °F 78% 30.01 in 1.2 mi NNE 11.5 mph 16.1 mph 0.28 in Rain , Thunderstorm Heavy Thunderstorms and Rain
5:56 PM 74.8 °F - 68.0 °F 79% 30.03 in 3.0 mi WNW 18.4 mph 24.2 mph 0.43 in Rain , Thunderstorm Thunderstorms and Rain
6:00 PM 73.4 °F - 68.0 °F 83% 30.08 in 3.0 mi WNW 19.6 mph 24.2 mph 0.06 in Rain , Thunderstorm Thunderstorms and Rain
6:12 PM 69.8 °F - 66.2 °F 88% 30.09 in 0.5 mi West 15.0 mph - 0.59 in Fog , Rain , Thunderstorm Thunderstorms and Rain
6:21 PM 69.8 °F - 66.2 °F 88% 30.02 in 3.0 mi NNW 6.9 mph - 0.72 in Rain , Thunderstorm Thunderstorms and Rain
6:30 PM 69.8 °F - 66.2 °F 88% 30.03 in 3.0 mi NE 13.8 mph - 0.73 in Rain , Thunderstorm Thunderstorms and Rain
6:56 PM 68.9 °F - 66.9 °F 93% 30.01 in 10.0 mi ESE 8.1 mph - 0.73 in Thunderstorm Partly Cloudy
7:56 PM 70.0 °F - 68.0 °F 93% 29.90 in 10.0 mi SSE 10.4 mph - N/A   Clear
8:56 PM 70.0 °F - 65.8 °F 87% 29.94 in 10.0 mi South 5.8 mph - N/A   Clear
9:56 PM 68.9 °F - 65.8 °F 90% 29.94 in 10.0 mi SSE 9.2 mph - 0.00 in   Scattered Clouds
10:56 PM 70.9 °F - 68.0 °F 91% 29.95 in 10.0 mi SSE 8.1 mph - N/A   Clear
11:56 PM 72.0 °F - 70.9 °F 96% 29.94 in 7.0 mi South 8.1 mph - N/A   Clear